EN

Hourly Weather Buzhany

Today, 9 May, Sunday

Time Temperature Precipitation Wind Pressure Humidity
00:00 +3°C° 0 mm 2 mps 746 mmHg 89%
01:00 +2°C° 0 mm 2 mps 746 mmHg 90%
02:00 +2°C° 0 mm 2 mps 746 mmHg 90%
03:00 +2°C° 0 mm 2 mps 747 mmHg 90%
04:00 +2°C° 0 mm 2 mps 747 mmHg 90%
05:00 +1°C° 0 mm 2 mps 747 mmHg 90%
06:00 +4°C° 0 mm 2 mps 747 mmHg 84%
07:00 +6°C° 0 mm 2 mps 748 mmHg 77%
08:00 +9°C° 0 mm 1 mps 748 mmHg 71%
09:00 +10°C° 0 mm 1 mps 748 mmHg 64%
10:00 +12°C° 0 mm 2 mps 748 mmHg 58%
11:00 +13°C° 0 mm 2 mps 748 mmHg 52%
12:00 +14°C° 0 mm 2 mps 748 mmHg 50%
13:00 +15°C° 0 mm 2 mps 748 mmHg 48%
14:00 +16°C° 0 mm 2 mps 747 mmHg 46%
15:00 +16°C° 0 mm 2 mps 747 mmHg 46%
16:00 +16°C° 0 mm 2 mps 747 mmHg 47%
17:00 +17°C° 0 mm 2 mps 746 mmHg 48%
18:00 +15°C° 0 mm 2 mps 747 mmHg 55%
19:00 +13°C° 0 mm 2 mps 747 mmHg 62%
20:00 +10°C° 0 mm 3 mps 747 mmHg 68%
21:00 +10°C° 0 mm 3 mps 747 mmHg 71%
22:00 +9°C° 0 mm 3 mps 747 mmHg 74%
23:00 +8°C° 0 mm 3 mps 747 mmHg 76%

Tomorrow, 10 May, Monday

Time Temperature Precipitation Wind Pressure Humidity
00:00 +8°C° 0 mm 3 mps 747 mmHg 77%
01:00 +7°C° 0 mm 3 mps 747 mmHg 78%
02:00 +7°C° 0 mm 3 mps 747 mmHg 79%
03:00 +7°C° 0 mm 3 mps 747 mmHg 78%
04:00 +7°C° 0 mm 3 mps 747 mmHg 76%
05:00 +5°C° 0 mm 3 mps 747 mmHg 75%
06:00 +7°C° 0 mm 4 mps 747 mmHg 71%
07:00 +9°C° 0 mm 5 mps 747 mmHg 68%
08:00 +12°C° 0 mm 5 mps 747 mmHg 64%
09:00 +14°C° 0 mm 6 mps 747 mmHg 61%
10:00 +15°C° 0 mm 6 mps 747 mmHg 57%
11:00 +17°C° 0 mm 7 mps 747 mmHg 54%
12:00 +18°C° 0 mm 7 mps 747 mmHg 53%
13:00 +19°C° 0 mm 6 mps 747 mmHg 52%
14:00 +20°C° 0 mm 6 mps 746 mmHg 51%
15:00 +20°C° 0 mm 6 mps 746 mmHg 55%
16:00 +20°C° 0 mm 6 mps 746 mmHg 58%
17:00 +19°C° 0 mm 5 mps 746 mmHg 61%
18:00 +16°C° 0 mm 5 mps 746 mmHg 67%
19:00 +14°C° 0 mm 4 mps 746 mmHg 74%
20:00 +12°C° 0 mm 4 mps 746 mmHg 80%
21:00 +12°C° 0 mm 4 mps 746 mmHg 80%
22:00 +11°C° 0 mm 4 mps 746 mmHg 81%
23:00 +10°C° 0 mm 4 mps 746 mmHg 81%

Day after tomorrow, 11 May, Tuesday

Time Temperature Precipitation Wind Pressure Humidity
00:00 +10°C° 0 mm 4 mps 746 mmHg 81%
01:00 +8°C° 0 mm 4 mps 746 mmHg 81%
02:00 +8°C° 0 mm 4 mps 746 mmHg 81%
03:00 +8°C° 0 mm 4 mps 746 mmHg 80%
04:00 +7°C° 0 mm 4 mps 746 mmHg 80%
05:00 +7°C° 0 mm 5 mps 746 mmHg 79%
06:00 +9°C° 0 mm 5 mps 746 mmHg 75%
07:00 +10°C° 0 mm 6 mps 746 mmHg 71%
08:00 +13°C° 0 mm 6 mps 746 mmHg 67%
09:00 +14°C° 0 mm 6 mps 745 mmHg 63%
10:00 +16°C° 0 mm 6 mps 745 mmHg 59%
11:00 +17°C° 0 mm 7 mps 745 mmHg 55%
12:00 +18°C° 0 mm 7 mps 745 mmHg 53%
13:00 +19°C° 0 mm 6 mps 745 mmHg 50%
14:00 +20°C° 0 mm 6 mps 744 mmHg 48%
15:00 +19°C° 0 mm 6 mps 744 mmHg 50%
16:00 +19°C° 0 mm 6 mps 744 mmHg 52%
17:00 +19°C° 0 mm 5 mps 743 mmHg 54%
18:00 +16°C° 0 mm 5 mps 743 mmHg 62%
19:00 +14°C° 0 mm 4 mps 743 mmHg 70%
20:00 +12°C° 0 mm 4 mps 743 mmHg 78%
21:00 +12°C° 0 mm 3 mps 743 mmHg 82%
22:00 +11°C° 0 mm 3 mps 743 mmHg 85%
23:00 +11°C° 0 mm 3 mps 742 mmHg 89%

12 May, Wednesday

Time Temperature Precipitation Wind Pressure Humidity
00:00 +11°C° 0 mm 3 mps 742 mmHg 90%
01:00 +10°C° 0 mm 3 mps 742 mmHg 91%
02:00 +10°C° 0 mm 3 mps 741 mmHg 93%
03:00 +10°C° 0 mm 4 mps 741 mmHg 94%
04:00 +10°C° 0 mm 4 mps 741 mmHg 95%
05:00 +10°C° 0 mm 4 mps 741 mmHg 96%
06:00 +9°C° 0 mm 5 mps 741 mmHg 92%
07:00 +10°C° 0 mm 6 mps 741 mmHg 89%
08:00 +11°C° 0 mm 7 mps 741 mmHg 86%
09:00 +12°C° 0 mm 7 mps 741 mmHg 77%
10:00 +12°C° 0 mm 7 mps 741 mmHg 68%
11:00 +13°C° 0 mm 8 mps 741 mmHg 59%
12:00 +15°C° 0 mm 8 mps 740 mmHg 58%
13:00 +15°C° 0 mm 8 mps 740 mmHg 56%
14:00 +15°C° 0 mm 8 mps 740 mmHg 54%
15:00 +15°C° 0 mm 8 mps 739 mmHg 57%
16:00 +13°C° 0 mm 8 mps 739 mmHg 61%
17:00 +14°C° 0 mm 7 mps 739 mmHg 64%
18:00 +11°C° 0 mm 7 mps 739 mmHg 66%
19:00 +10°C° 0 mm 6 mps 739 mmHg 68%
20:00 +8°C° 0 mm 6 mps 738 mmHg 70%
21:00 +8°C° 0 mm 5 mps 738 mmHg 72%
22:00 +7°C° 0 mm 5 mps 738 mmHg 74%
23:00 +7°C° 0 mm 5 mps 737 mmHg 76%

13 May, Thursday

Time Temperature Precipitation Wind Pressure Humidity
00:00 +6°C° 0 mm 5 mps 737 mmHg 77%
01:00 +6°C° 0 mm 5 mps 736 mmHg 77%
02:00 +6°C° 0 mm 5 mps 736 mmHg 77%
03:00 +6°C° 0 mm 5 mps 736 mmHg 78%
04:00 +7°C° 0 mm 5 mps 735 mmHg 78%
05:00 +7°C° 0 mm 5 mps 735 mmHg 78%
06:00 +7°C° 0.1 mm 5 mps 735 mmHg 80%
07:00 +8°C° 0.1 mm 5 mps 734 mmHg 82%
08:00 +9°C° 0.1 mm 5 mps 734 mmHg 84%
09:00 +10°C° 0 mm 5 mps 734 mmHg 83%
10:00 +12°C° 0 mm 5 mps 734 mmHg 81%
11:00 +13°C° 0 mm 5 mps 734 mmHg 80%
12:00 +13°C° 0.1 mm 5 mps 734 mmHg 80%
13:00 +13°C° 0.1 mm 5 mps 734 mmHg 81%
14:00 +13°C° 0.1 mm 5 mps 734 mmHg 81%
15:00 +13°C° 0.1 mm 5 mps 734 mmHg 83%
16:00 +12°C° 0.1 mm 5 mps 735 mmHg 85%
17:00 +12°C° 0.1 mm 5 mps 735 mmHg 88%
18:00 +10°C° 0.2 mm 5 mps 735 mmHg 89%
19:00 +11°C° 0.2 mm 4 mps 735 mmHg 91%
20:00 +10°C° 0.2 mm 4 mps 735 mmHg 92%
21:00 +10°C° 0.1 mm 4 mps 735 mmHg 93%
22:00 +10°C° 0.1 mm 3 mps 735 mmHg 94%
23:00 +10°C° 0.1 mm 3 mps 735 mmHg 96%

14 May, Friday

Time Temperature Precipitation Wind Pressure Humidity
00:00 +10°C° 0.1 mm 3 mps 734 mmHg 96%
01:00 +10°C° 0.1 mm 2 mps 734 mmHg 96%
02:00 +10°C° 0.1 mm 2 mps 734 mmHg 96%
03:00 +10°C° 0 mm 2 mps 734 mmHg 95%
04:00 +10°C° 0 mm 3 mps 734 mmHg 94%
05:00 +10°C° 0 mm 3 mps 735 mmHg 94%
06:00 +11°C° 0 mm 3 mps 735 mmHg 91%
07:00 +12°C° 0 mm 4 mps 735 mmHg 88%
08:00 +13°C° 0 mm 4 mps 735 mmHg 85%
09:00 +14°C° 0.2 mm 4 mps 735 mmHg 79%
10:00 +15°C° 0.2 mm 4 mps 736 mmHg 74%
11:00 +16°C° 0.2 mm 5 mps 736 mmHg 68%
12:00 +17°C° 0.4 mm 5 mps 736 mmHg 65%
13:00 +17°C° 0.4 mm 5 mps 736 mmHg 62%
14:00 +19°C° 0.4 mm 5 mps 736 mmHg 59%
15:00 +19°C° 0.1 mm 5 mps 736 mmHg 62%
16:00 +18°C° 0.1 mm 4 mps 736 mmHg 64%
17:00 +18°C° 0.1 mm 4 mps 737 mmHg 66%
18:00 +16°C° 0 mm 3 mps 737 mmHg 71%
19:00 +14°C° 0 mm 3 mps 737 mmHg 76%
20:00 +12°C° 0 mm 3 mps 737 mmHg 81%
21:00 +11°C° 0 mm 3 mps 738 mmHg 84%
22:00 +11°C° 0 mm 3 mps 738 mmHg 86%
23:00 +10°C° 0 mm 3 mps 738 mmHg 89%
Show more

We Need Your Consent

Meteoprog and our Service Providers may store and access personal data such as cookies, device identifiers or other similar technologies on your device and process such data to personalise content and ads, as well as provide social media features and to analyse the traffic.

  • Store and/or access information on your device

    Cookies, device identifiers or other information can be stored or accessed on your device for the purposes indicated above.

  • Personalised ads and content, ad and content measurement, audience insights, and products development

    Ads and content can be personalised based on a profile. More data can be added to better personalise ads and content. Ad and content performance can be measured. Insights about the audience who saw the ads and content can be derived. Such data can be used to develop or improve user’s experience, systems and software.

By clicking ‘I Agree’ you will allow the use of indicated cookies, device identifiers, web beacons or other similar technologies. Your settings can be changed in the browser on your device.

For certain purposes, legitimate interests may be relied on, rather than consent. You can read more about this in our Privacy and Cookie Policy.